EW1145 Weather Reports


time (UTC)temp
F
wind
direction
speed
knots
gust
knots
rain 1hr
in
rain 24hr
in
rain mn
in
humidity
%
barometer
mb
20260505191529 57 67 0.0 0.9 0.00 0.00 0.00 83 1016.4
20260505190022 57 277 0.0 0.9 0.00 0.00 0.00 88 1016.4
20260505184520 56 277 0.0 0.0 0.00 0.00 0.00 88 1016.4
20260505183020 55 277 0.0 0.0 0.00 0.00 0.00 89 1016.3
20260505181521 55 277 0.0 0.0 0.00 0.00 0.00 90 1016.4
20260505180015 55 277 0.0 0.0 0.00 0.00 0.00 91 1016.3
20260505174514 55 277 0.0 0.0 0.00 0.00 0.00 93 1016.3
20260505173014 54 277 0.0 0.0 0.00 0.00 0.00 93 1016.3
20260505171510 53 277 0.0 0.0 0.00 0.00 0.00 93 1016.1
20260505170008 53 277 0.0 0.0 0.00 0.00 0.00 94 1016.0
20260505164506 53 277 0.0 0.0 0.00 0.00 0.00 95 1015.9
20260505163007 52 277 0.0 0.0 0.00 0.00 0.00 94 1015.9
20260505161509 52 277 0.0 0.0 0.00 0.00 0.00 94 1015.8
20260505153001 53 277 0.0 0.0 0.00 0.00 0.00 92 1015.7
20260505151600 53 277 0.0 0.0 0.00 0.00 0.00 91 1015.6
20260505150108 53 277 0.0 0.0 0.00 0.00 0.00 91 1015.5
20260505130104 52 277 0.0 0.0 0.00 0.00 0.00 92 1014.6
20260505124552 51 277 0.0 0.0 0.00 0.00 0.00 91 1014.6
20260505123047 51 277 0.0 0.0 0.00 0.00 0.00 92 1014.5
20260505121547 51 277 0.0 0.0 0.00 0.00 0.00 92 1014.5
20260505120049 51 277 0.0 0.0 0.00 0.00 0.00 92 1014.5
20260505114549 52 277 0.0 0.0 0.00 0.00 0.00 92 1014.4
20260505113044 52 277 0.0 0.0 0.00 0.00 0.00 92 1014.4
20260505111543 51 277 0.0 0.0 0.00 0.00 0.00 93 1014.3
20260505101544 51 277 0.0 0.0 0.00 0.00 0.00 94 1013.9
20260505100037 50 277 0.0 0.0 0.00 0.00 0.00 95 1014.0
20260505094536 50 277 0.0 0.0 0.00 0.00 0.00 95 1013.9
20260505093036 49 277 0.0 0.0 0.00 0.00 0.00 95 1013.7
20260505091535 49 277 0.0 0.0 0.00 0.00 0.00 93 1013.6
20260505090041 50 277 0.0 0.0 0.00 0.00 0.00 92 1013.5
20260505084527 50 277 0.0 0.0 0.00 0.00 0.00 92 1013.4
20260505083026 51 277 0.0 0.0 0.00 0.00 0.00 92 1013.3
20260505081523 51 277 0.0 0.0 0.00 0.00 0.00 92 1013.3
20260505080037 51 277 0.0 0.0 0.00 0.00 0.00 91 1013.2
20260505074525 51 277 0.0 0.0 0.00 0.00 0.00 91 1013.0
20260505073028 52 277 0.0 0.0 0.00 0.00 0.00 90 1012.8
20260505071513 52 277 0.0 0.0 0.00 0.00 0.00 88 1012.6
20260505070011 53 277 0.0 0.0 0.00 0.00 0.00 88 1012.4
20260505064511 53 277 0.0 0.0 0.00 0.00 0.00 87 1012.3
20260505063010 54 277 0.0 0.0 0.00 0.00 0.00 86 1012.2
20260505061509 54 277 0.0 0.0 0.00 0.00 0.00 85 1011.8
20260505060009 55 277 0.0 0.0 0.00 0.00 0.00 84 1011.8
20260505054509 56 277 0.0 0.0 0.00 0.00 0.00 83 1011.8
20260505053009 57 277 0.0 0.0 0.00 0.00 0.00 81 1011.7
20260505051510 58 277 0.0 0.0 0.00 0.00 0.00 79 1011.6
20260505041506 63 277 0.0 0.0 0.00 0.00 0.00 67 1010.8
20260505040006 64 277 0.0 4.3 0.00 0.00 0.00 66 1010.6
20260505034505 65 304 0.9 6.1 0.00 0.00 0.00 64 1010.4
20260505033005 66 277 0.0 5.2 0.00 0.00 0.00 63 1010.1
20260505031505 68 282 0.0 7.0 0.00 0.00 0.00 61 1009.8
20260505030004 69 268 1.7 4.3 0.00 0.00 0.00 60 1009.7
20260505024505 71 304 0.9 5.2 0.00 0.00 0.00 57 1009.6
20260505023002 73 295 0.0 0.0 0.00 0.00 0.00 61 1009.4
20260505021502 72 296 0.0 0.0 0.00 0.00 0.00 61 1009.4
20260505020001 73 279 0.0 0.0 0.00 0.00 0.00 61 1009.3
20260505014501 74 244 0.0 3.5 0.00 0.00 0.00 59 1009.2
20260505013100 74 207 0.0 0.9 0.00 0.00 0.00 60 1009.2
20260505011601 75 207 0.0 3.5 0.00 0.00 0.00 61 1009.3
20260505010059 75 213 0.0 6.1 0.00 0.00 0.00 60 1009.4
20260505004600 76 216 0.0 7.0 0.00 0.00 0.00 59 1009.5
20260505003058 76 220 0.0 7.0 0.00 0.00 0.00 59 1009.5
20260505001558 76 232 0.0 5.2 0.00 0.00 0.00 59 1009.5
20260505000059 77 198 0.0 3.5 0.00 0.00 0.00 59 1009.6
20260504234557 76 196 0.0 5.2 0.00 0.00 0.00 59 1009.7
20260504233055 76 211 0.0 5.2 0.00 0.00 0.00 58 1009.8
20260504231556 76 208 0.0 4.3 0.00 0.00 0.00 59 1009.9
20260504230053 75 229 0.0 4.3 0.00 0.00 0.00 60 1010.0
20260504224550 75 205 1.7 6.1 0.00 0.00 0.00 58 1010.2
20260504223049 74 186 0.0 5.2 0.00 0.00 0.00 63 1010.4
20260504221548 74 171 0.0 7.0 0.00 0.00 0.00 64 1010.5
20260504220048 74 219 0.0 6.1 0.00 0.00 0.00 63 1010.8
20260504214554 73 171 0.0 6.1 0.00 0.00 0.00 64 1010.8
20260504213046 72 192 0.9 4.3 0.00 0.00 0.00 63 1011.0
20260504211546 71 236 0.0 6.1 0.00 0.00 0.00 64 1011.2
20260504210057 70 221 0.0 7.0 0.00 0.00 0.00 65 1011.5
20260504204558 70 186 0.0 3.5 0.00 0.00 0.00 66 1011.7
20260504203056 69 210 0.0 3.5 0.00 0.00 0.00 67 1011.9
20260504201543 68 225 0.0 2.6 0.00 0.00 0.00 66 1012.1
20260504200044 67 214 0.0 4.3 0.00 0.00 0.00 67 1012.2
20260504194543 65 256 0.0 5.2 0.00 0.00 0.00 71 1012.3
20260504193042 64 105 0.0 2.6 0.00 0.00 0.00 72 1012.5